Eugene, OR

5:15 AM PDT on August 17, 2017 (GMT -0700)
Mahlon Sweet

Weather History for KEUG - January, 2014

Change the Weather History Date:

Thursday, January 16, 2014

  Actual Average Record
Temperature  
Mean Temperature 35 °F 41 °F  
Max Temperature 36 °F 47 °F 64 °F (1926)
Min Temperature 33 °F 34 °F 16 °F (1907)
Degree Days  
Heating Degree Days 30 24  
Month to date heating degree days 388 397  
Since 1 July heating degree days 2534 2354  
Cooling Degree Days 0 0  
Month to date cooling degree days 0 0  
Year to date cooling degree days 0 0  
Moisture  
Dew Point 34 °F    
Average Humidity 96    
Maximum Humidity 100    
Minimum Humidity 92    
Precipitation  
Precipitation 0.00 in 0.22 in 2.30 in (1896)
Month to date precipitation 1.74 3.78  
Year to date precipitation 1.74 3.78  
Sea Level Pressure  
Sea Level Pressure 30.42 in    
Wind  
Wind Speed 5 mph (NE)    
Max Wind Speed 9 mph    
Max Gust Speed 11 mph    
Visibility 1 miles    
Events Fog    
T = Trace of Precipitation, MM = Missing Value Source: NWS Daily Summary

Daily Weather History Graph

Daily Weather History Graph

Search for Another Location

Airport or City:

Trip Planner

Search our weather history database for the weather conditions in past years. The results will help you decide how hot, cold, wet, or windy it might be!

Date:

Astronomy

Jan. 16, 2014 Rise Set
Actual Time 7:44 AM PST 5:01 PM PST
Civil Twilight 7:12 AM PST 5:33 PM PST
Nautical Twilight 6:36 AM PST 6:09 PM PST
Astronomical Twilight 6:01 AM PST 6:44 PM PST
Moon 6:02 PM PST (1/16) 7:37 AM PST (1/16)
Length of Visible Light 10h 21m
Length of Day
9h 17m
Full, 100% of the Moon is Illuminated
Jan 16
Full
Jan 23
Last Quarter
Jan 30
New
Feb 6
First Quarter
Feb 14
Full

Hourly Weather History & Observations

Time (PST) Temp. Windchill Dew Point Humidity Pressure Visibility Wind Dir Wind Speed Gust Speed Precip Events Conditions
12:19 AM 36.0 °F - 35.1 °F 97% 30.48 in 1.2 mi Calm Calm - N/A   Overcast
12:33 AM 36.0 °F 33.3 °F 35.1 °F 97% 30.47 in 0.8 mi NE 3.5 mph - N/A   Mist
12:43 AM 36.0 °F 33.3 °F 35.1 °F 97% 30.47 in 1.5 mi ENE 3.5 mph - N/A   Overcast
12:47 AM 36.0 °F - 35.1 °F 97% 30.47 in 3.0 mi Calm Calm - N/A   Overcast
12:54 AM 36.0 °F 33.3 °F 35.1 °F 97% 30.48 in 2.5 mi NE 3.5 mph - N/A   Overcast
1:11 AM 36.0 °F 33.3 °F 34.0 °F 93% 30.47 in 1.2 mi ENE 3.5 mph - N/A   Overcast
1:41 AM 35.1 °F 32.2 °F 35.1 °F 100% 30.47 in 2.0 mi ENE 3.5 mph - N/A   Overcast
1:54 AM 35.1 °F 32.2 °F 35.1 °F 100% 30.48 in 2.0 mi ENE 3.5 mph - N/A   Overcast
2:09 AM 35.1 °F - 35.1 °F 100% 30.47 in 4.0 mi Calm Calm - N/A   Overcast
2:54 AM 35.1 °F 31.0 °F 34.0 °F 96% 30.48 in 10.0 mi NE 4.6 mph - N/A   Overcast
3:27 AM 35.1 °F 31.0 °F 34.0 °F 96% 30.46 in 1.8 mi North 4.6 mph - N/A   Overcast
3:37 AM 34.0 °F 29.8 °F 34.0 °F 100% 30.46 in 3.0 mi North 4.6 mph - N/A   Overcast
3:47 AM 34.0 °F 28.8 °F 34.0 °F 100% 30.46 in 1.8 mi North 5.8 mph - N/A   Overcast
3:54 AM 34.0 °F 29.8 °F 34.0 °F 100% 30.47 in 1.2 mi North 4.6 mph - N/A   Overcast
4:29 AM 34.0 °F 28.8 °F 34.0 °F 100% 30.46 in 0.8 mi North 5.8 mph - N/A   Mist
4:54 AM 34.0 °F 28.0 °F 33.1 °F 96% 30.47 in 1.2 mi NE 6.9 mph - N/A   Overcast
5:54 AM 33.1 °F 27.7 °F 32.0 °F 96% 30.47 in 0.5 mi NE 5.8 mph - N/A Fog Fog
6:21 AM 33.1 °F 28.7 °F 32.0 °F 96% 30.46 in 1.0 mi NNE 4.6 mph - N/A   Overcast
6:54 AM 33.1 °F 26.9 °F 32.0 °F 96% 30.47 in 1.0 mi NE 6.9 mph - N/A   Overcast
7:15 AM 33.1 °F 28.7 °F 32.0 °F 96% 30.46 in 0.5 mi NE 4.6 mph - N/A Fog Fog
7:54 AM 33.1 °F 28.7 °F 32.0 °F 96% 30.48 in 0.5 mi ENE 4.6 mph - N/A   Overcast
8:54 AM 33.1 °F 30.0 °F 33.1 °F 100% 30.49 in 0.5 mi North 3.5 mph - N/A Fog Fog
9:54 AM 33.1 °F 28.7 °F 33.1 °F 100% 30.49 in 0.5 mi NNE 4.6 mph - N/A   Mist
10:54 AM 34.0 °F 29.8 °F 33.1 °F 96% 30.48 in 0.5 mi North 4.6 mph - N/A   Mist
11:54 AM 34.0 °F 28.0 °F 33.1 °F 96% 30.45 in 0.8 mi NNE 6.9 mph - N/A   Overcast
12:54 PM 34.0 °F 27.2 °F 33.1 °F 96% 30.42 in 0.8 mi NNE 8.1 mph - N/A   Overcast
1:54 PM 34.0 °F 28.8 °F 33.1 °F 96% 30.39 in 0.8 mi NNE 5.8 mph - N/A   Overcast
2:54 PM 35.1 °F 32.2 °F 34.0 °F 96% 30.38 in 0.8 mi NNE 3.5 mph - N/A   Mist
3:54 PM 35.1 °F 30.1 °F 34.0 °F 96% 30.38 in 0.8 mi North 5.8 mph - N/A   Overcast
4:25 PM 35.1 °F 30.1 °F 34.0 °F 96% 30.37 in 1.0 mi NNE 5.8 mph - N/A   Overcast
4:46 PM 36.0 °F 30.3 °F 34.0 °F 93% 30.36 in 0.8 mi NNE 6.9 mph - N/A   Overcast
4:54 PM 35.1 °F 29.3 °F 34.0 °F 96% 30.37 in 0.8 mi North 6.9 mph - N/A   Overcast
5:54 PM 35.1 °F 31.0 °F 34.0 °F 96% 30.37 in 0.8 mi NNE 4.6 mph - N/A   Overcast
6:41 PM 36.0 °F 33.3 °F 34.0 °F 93% 30.34 in 1.0 mi NE 3.5 mph - N/A   Overcast
6:54 PM 36.0 °F 33.3 °F 34.0 °F 93% 30.35 in 1.0 mi ENE 3.5 mph - N/A   Overcast
7:16 PM 36.0 °F 33.3 °F 34.0 °F 93% 30.34 in 2.0 mi NE 3.5 mph - N/A   Overcast
7:54 PM 36.0 °F 32.1 °F 34.0 °F 93% 30.35 in 2.0 mi ESE 4.6 mph - N/A   Overcast
8:38 PM 35.1 °F 31.0 °F 34.0 °F 96% 30.33 in 1.5 mi East 4.6 mph - N/A   Overcast
8:45 PM 35.1 °F 31.0 °F 34.0 °F 96% 30.33 in 1.0 mi East 4.6 mph - N/A   Overcast
8:54 PM 35.1 °F 31.0 °F 34.0 °F 96% 30.34 in 0.5 mi ESE 4.6 mph - N/A Fog Fog
9:34 PM 35.1 °F 32.2 °F 34.0 °F 96% 30.33 in 0.2 mi SE 3.5 mph - N/A Fog Fog
9:54 PM 35.1 °F 32.2 °F 34.0 °F 96% 30.34 in 0.2 mi SE 3.5 mph - N/A Fog Fog
10:54 PM 35.1 °F - 34.0 °F 96% 30.33 in 0.2 mi Calm Calm - N/A Fog Fog
11:54 PM 35.1 °F - 34.0 °F 96% 30.32 in 0.5 mi Calm Calm - N/A Fog Fog